User: anonymous   Login
Location: Unspecified
(0.0000°N, 0.0000°E)
Time: 11:14:49
(UTC+02:00)
Language:

ADEOS II - Orbit

View from above orbital plane
View from above orbital plane
View from above satellite
View from above satellite

Ground track
Ground track

The orbit data is extracted from the following two-line orbital elements,

1 27597U 02056A   16180.02293042  .00000043  00000-0  34504-4 0  9998
2 27597  98.3223 159.6142 0000602  40.0219 320.1007 14.27218770704903
Epoch (UTC): 28 June 2016 00:33:01
Eccentricity: 0.0000602
inclination: 98.3223°
perigee height: 800 km
apogee height: 801 km
right ascension of ascending node: 159.6142°
argument of perigee: 40.0219°
revolutions per day: 14.27218770
mean anomaly at epoch: 320.1007°
orbit number at epoch: 70490

The dashed part of the orbit path shows where the satellite is in the earth's shadow,  

DLR